X

Important NEWS



New Hub Active

Miami is our new hub! Old members can request transfer via hr@dlxairways.net

Thank you very much and have nice flight.


Deluxe Airways.

X

Tours



Hello again, we created one nice test tour for all pilots to attend. also this is ment to be testing of our tour system

Available Tours

If you find some issues please inform us.

Thank you very much and have nice flight.


Deluxe Airways.

 METAR AND TAF INFORMATION
ArrayMETAR FOR LYBE
11637792 4 LYBE 250530Z 14010KT CAVOK 16/09 Q1020 NOSIG LYBE 2019-04-25T05:30:00Z 44.82 20.28 16.0 9.0 140 10 6.21 30.11811 TRUE VFR METAR 99.0 LYBE 250500Z 13010KT CAVOK 15/09 Q1020 NOSIG LYBE 2019-04-25T05:00:00Z 44.82 20.28 15.0 9.0 130 10 6.21 30.11811 TRUE VFR METAR 99.0 LYBE 250430Z 13007KT CAVOK 14/08 Q1020 NOSIG LYBE 2019-04-25T04:30:00Z 44.82 20.28 14.0 8.0 130 7 6.21 30.11811 TRUE VFR METAR 99.0 LYBE 250400Z 12007KT CAVOK 13/08 Q1019 NOSIG LYBE 2019-04-25T04:00:00Z 44.82 20.28 13.0 8.0 120 7 6.21 30.088583 TRUE VFR METAR 99.0

 AIRPORT MAP

 RUNWAY INFORMATION
Runway 12 Runway length 11155 ft Runway width 148 ft
Runway elevation 318 ft Runway displaced threshold 0 ft Runway heading 122
Runway 30 Runway length 11155 ft Runway width 148 ft
Runway elevation 335 ft Runway displaced threshold 1312 ft Runway heading 302

 AIRPORT FREQUENCIES
Type APP Name APP Frequency 119.1 MHZ
Type ATIS Name INFO Frequency 122.925 MHZ
Type TWR Name TWR Frequency 118.1 MHZ

 AIRPORT NEAR NAVIGATION AIDS
Type VOR-DME Name Beograd Frequency 112300 KHZ
Type NDB Name Beograd Frequency 316 KHZ
Type NDB Name Beograd Frequency 380 KHZ
Type NDB Name Beograd Frequency 355 KHZ



Powered by Virtual Airlines Manager [v2.6.2]

Template code change by DeluxeAir